Terminal Aerodrome Forecast
Issued by NWS Flagstaff, AZ

Home | Current Version | Previous Version | Text Only | Print | Product List | Glossary On
Versions: 1 2 3 4 5 6 7 8 9 10 11 12 13 14 15 16 17 18 19 20 21 22 23 24 25 26 27 28
433
FTUS45 KFGZ 220032 AAA
TAFFLG
TAF AMD
KFLG 220032Z 2201/2224 26008KT P6SM FEW030 BKN040
     FM220500 24004KT 6SM BR FEW025 SCT100
     FM220700 VRB02KT 3SM BR SCT100
     FM221400 22006KT P6SM BKN030 OVC060
     FM221800 22010G15KT 6SM -SHSN BKN015 OVC030=

USA.gov is the U.S. government's official web portal to all federal, state and local government web resources and services.